DECAYED

FENGYUN 1C DEB, 38726 (Decayed)

Orbit data source: Space-Track

FENGYUN 1C DEB, 38726 was space debris in SSO originally from a launch on Mon, 10 May 1999 UTC launched from the Taiyaun Space Center, China (TSC). Fengyun 1C debris stems from the Chinese weather satellite Fengyun-1C, which was intentionally destroyed by a Chinese anti-satellite missile in 2007. This event dramatically increased the amount of space debris, with thousands of trackable fragments posing hazards to satellites and human spaceflight. The Fengyun 1C debris cloud has become a focal point in discussions about space sustainability and the need for international regulations to prevent the creation of new debris.

Not visible in the next 10 days
Identifier
38726, 1999-025ETT
Orbit
Decayed
Country
Flag of CNCN / PRC
Related business
Manufacturer
Unknown
Mission
Decayed spacecraft
Bus & Motor
Unknown
Mass
Unknown
Launch date (UTC)
1999-05-10 (27 years ago)
Launch vehicle
Unknown
Launch site
Taiyaun Space Center, China (TSC)
Object type
Payload
Rocket body
Debris
Shape & HBR
Unknown shape, 0.1 m
Radar Cross Section
Small (<0.1 m²)

Expand to show TLE details & history
Last TLE update: 5 months ago

TLE from 5 months ago
0 FENGYUN 1C DEB
1 38726U 99025ETT 26095.38355834  .01848789  00000-0  17890-1 0  9993
2 38726  99.0982 148.1568 0004777 209.6410 150.4573 15.63343947715828
Epoch: 2026-04-05T09:12Z
TLE epoch observation values (Epoch: 2026-04-05T09:12:19.440Z)
Latitude
-0.00003°
Longitude
176.38604°
Altitude
383.909 km
Speed
7.678 km/s
True Right ascension
09h 52m 37s
True Declination
0° 00' 00"
Sunlit
Object was in full shadow at epoch
Visualization orbit readout
Latitude
Unknown
Longitude
Unknown
Altitude
Unknown
Speed
Unknown
Apparent Right ascension
Unknown
Apparent Declination
Unknown
Sunlit
N/A
Visualization observer readout
Local Sidereal Time
16:02:35
Azimuth
Unknown
Elevation
Unknown
Doppler factor
Unknown
Orbital elements
Apogee altitude
378.222 km
Perigee altitude
371.77 km
Semi-major axis
6,753.133 km
Eccentricity
0.00048
Inclination
99.0982°
RAAN
148.1568°
Arg. of periapsis
209.641°
True anomaly
150.48428°
Mean anomaly
150.4573°
Eccentric anomaly
150.47079°
Mean motion
3.91098 °/min
Orbital period
92.05 mins
BSTAR
0.01789
Loading maneuver chart data...
Computing Atmospheric mass density...
Loading historical data...
Loading historical data...
Loading historical data...
Loading historical data...
Loading historical data...
Loading historical data...
Loading historical data...

Documentation

Showing up to 5 results
|